EHI
3 2 2 2 1 0 0 0 0 0 0 0 0 0 0 0 0 1 3 4 4 3 2 2 3 4 4 4 2 1 0 0 0 0 0 0 0 0 0 0 0 0 0
3 2 1 1 0 0 0 0 0 0 0 0 0 0 0 0 0 1 2 2 3 4 3 3 4 5 5 4 2 1 0 0 0 0 0 0 0 0 0 0 0 0 0
3 2 2 1 0 0 0 0 0 0 0 0 0 0 0 0 0 0 0 1 2 5 5 5 5 6 6 4 3 1 0 0 0 0 0 0 0 0 0 0 0 0 0
2 2 2 1 0 0 0 0 0 0 0 0 0 0 0 0 0 0 0 0 2 5 6 6 6 7 7 6 4 2 2 1 1 0 0 0 0 0 0 0 0 0 0
1 1 1 1 0 0 0 0 0 0 0 0 0 0 0 0 0 0 0 0 2 5 6 6 7 8 8 7 5 4 2 2 1 1 0 0 0 0 0 0 0 0 0
1 1 0 0 0 0 0 0 0 0 0 0 0 0 0 0 0 0 0 0 1 3 5 5 6 6 6 6 6 5 3 2 2 3 1 0 0 0 0 0 0 0 0
2 2 2 2 1 0 0 0 0 0 0 0 0 0 0 0 0 0 0 0 0 1 2 3 4 4 4 5 6 6 4 3 3 3 2 1 0 0 0 0 0 0 0
4 4 5 4 3 1 0 0 0 0 0 0 0 0 0 0 0 0 0 0 0 0 1 2 3 3 3 4 5 5 6 5 3 2 2 1 0 0 0 0 0 0 0
6 6 6 6 4 2 1 0 0 0 0 0 0 0 0 0 0 0 0 0 0 0 0 1 1 2 3 3 3 3 4 5 3 2 2 1 0 0 0 1 0 0 0
8 7 7 6 4 3 1 0 1 1 1 1 0 0 0 0 0 0 0 0 0 0 0 0 0 1 3 3 1 1 2 3 2 1 1 1 0 0 0 0 0 0 0
9 8 8 7 5 4 2 2 2 2 2 2 1 0 0 0 0 0 0 0 0 0 0 0 0 1 2 2 1 0 0 1 1 0 0 0 0 0 0 0 0 0 0
7 8 8 8 8 6 4 3 3 3 3 2 1 0 0 0 0 0 0 0 0 0 0 0 0 0 1 2 2 1 0 0 0 0 0 0 0 0 0 0 0 0 0
6 6 7 9 8 6 4 3 3 3 2 2 1 0 0 0 0 0 0 0 0 0 0 0 0 0 0 1 2 1 0 0 0 0 0 0 0 0 0 0 0 0 0
6 6 6 7 7 5 3 3 2 1 1 1 0 0 0 0 0 0 0 0 0 0 0 0 0 0 0 0 1 1 0 0 0 0 0 0 0 0 0 0 0 0 0
6 6 7 7 6 4 3 3 1 0 0 0 0 0 0 0 0 0 0 0 0 0 0 0 0 0 0 0 0 0 0 0 0 0 0 0 0 0 0 0 0 0 0
6 7 7 7 6 4 3 2 1 0 0 0 0 0 0 0 0 0 0 0 0 0 0 0 0 0 0 0 0 0 0 0 0 0 0 0 0 0 0 0 0 0 0
7 7 8 7 6 4 3 2 1 0 0 0 0 0 0 0 0 0 0 0 0 0 0 0 0 0 0 0 0 0 0 0 0 0 0 0 0 0 0 0 0 0 0
7 8 7 6 5 3 2 1 0 0 0 0 0 0 0 0 0 0 0 0 0 0 0 0 0 0 0 0 0 0 0 0 0 0 0 0 0 0 0 0 0 0 0
6 7 7 5 4 2 1 0 0 0 0 0 0 0 0 0 0 0 0 0 0 0 0 0 0 0 0 0 0 0 0 0 0 0 0 0 0 0 0 0 0 0 0
4 5 6 4 3 3 2 1 0 0 0 0 0 0 0 0 0 0 0 0 0 0 0 0 0 0 0 0 0 0 0 0 0 0 0 0 0 0 0 0 0 0 0
2 3 4 4 3 3 2 1 0 0 0 0 0 0 0 0 0 0 0 0 0 0 0 0 0 0 0 0 0 0 0 0 0 0 0 0 0 0 0 0 0 0 0
1 1 2 3 3 3 1 0 0 1 1 1 0 0 0 0 0 0 0 0 0 0 0 0 0 0 0 0 0 0 0 0 0 0 0 0 0 0 0 0 0 0 0
0 0 1 3 4 3 1 0 0 1 2 2 1 0 0 0 0 0 0 0 0 0 0 0 0 0 0 0 0 0 0 0 0 0 0 0 0 0 0 0 0 0 0
1 1 2 4 5 3 1 0 0 0 1 1 1 0 0 0 0 0 0 0 0 0 0 0 0 0 0 0 0 0 0 0 0 0 0 0 0 0 0 0 0 0 0
3 4 5 6 6 4 1 0 0 0 0 0 0 0 0 0 0 0 0 0 0 0 0 0 0 0 0 0 0 0 0 0 0 0 0 0 0 0 0 0 0 0 0
5 6 6 6 6 4 1 0 0 0 0 0 0 0 0 0 0 0 0 0 0 0 0 0 0 0 0 0 0 0 0 0 0 0 0 0 0 0 0 0 0 0 0
Wind_Speed
3 2 2 2 2 1 2 1 1 1 1 1 2 3 3 3 3 3 3 8 8 8 8 9 10 9 9 8 9 8 8 8 7 7 6 6 6 6 6 6 6 5 5
3 3 2 2 2 2 2 2 2 2 1 1 2 3 3 3 4 4 3 5 7 7 8 8 9 9 9 8 8 8 8 8 8 7 6 6 6 6 6 6 6 5 5
4 3 2 2 2 2 2 2 1 1 1 2 2 2 3 3 3 4 3 2 3 6 8 8 8 8 9 9 8 8 8 7 7 7 7 6 6 6 6 6 6 6 5
4 3 2 2 2 2 2 2 2 2 2 1 1 1 2 2 3 3 3 3 2 3 5 7 7 8 8 8 8 8 7 7 7 7 6 6 6 6 6 6 6 5 5
4 3 2 1 2 2 2 2 2 2 2 1 1 1 1 2 2 3 3 3 3 3 2 4 7 8 8 8 8 8 8 7 7 7 7 7 6 6 6 6 6 6 5
4 3 2 2 2 2 1 2 2 2 2 1 2 2 1 0 1 2 3 2 2 3 3 3 2 4 7 7 8 8 8 8 7 7 7 7 6 6 6 6 6 6 5
4 3 2 2 2 2 3 3 2 2 1 1 2 2 2 2 1 1 1 2 2 3 3 3 2 2 2 6 7 9 9 8 8 8 7 7 7 6 6 6 6 5 6
4 4 4 3 3 2 2 2 3 2 1 2 3 2 2 3 3 1 0 2 2 2 2 4 3 3 2 2 5 9 9 9 8 8 8 7 7 7 7 6 7 6 6
4 3 4 3 3 3 3 3 3 4 2 1 2 3 3 2 1 2 1 1 2 1 2 2 3 4 4 3 3 6 9 9 9 9 8 8 8 8 7 7 7 7 7
4 4 4 4 3 3 3 3 3 2 4 2 1 1 2 4 3 0 2 1 1 2 2 3 3 3 3 3 4 7 9 9 9 9 9 9 9 9 8 8 8 8 8
4 4 4 3 3 3 3 3 3 3 3 3 2 1 1 1 2 3 1 2 2 2 2 3 3 3 3 4 4 7 10 9 10 10 9 9 9 10 9 9 8 8 8
3 4 4 4 3 3 3 3 3 4 3 3 2 2 2 2 2 2 2 2 2 2 2 2 2 3 3 4 6 9 10 10 10 10 9 9 9 9 9 9 9 9 9
3 4 4 4 3 3 3 3 3 3 3 3 3 2 2 2 3 3 3 2 1 2 1 1 2 2 3 3 4 8 9 10 10 10 10 9 9 9 9 9 9 9 9
4 4 4 4 4 4 4 3 2 3 3 3 3 3 2 2 2 3 4 3 1 1 1 2 1 2 2 3 4 7 5 8 9 10 10 10 10 9 9 9 9 8 8
4 4 4 4 4 4 3 3 2 2 3 3 3 2 2 2 2 2 3 4 4 2 2 3 2 2 2 2 4 4 4 7 9 10 11 10 10 10 10 9 9 8 8
4 4 4 4 4 4 4 3 2 2 2 3 2 2 2 1 1 2 2 2 3 4 3 3 3 2 2 3 4 4 4 7 8 10 10 10 10 10 10 10 9 9 9
5 5 5 5 5 5 4 3 3 3 3 2 2 3 2 2 2 1 2 2 2 3 3 3 2 1 2 2 2 2 3 3 4 8 10 10 10 10 10 10 10 9 9
4 5 5 5 5 5 4 5 4 4 4 3 3 3 3 2 2 2 2 2 2 2 3 2 2 1 2 2 2 2 2 3 3 6 8 10 10 10 10 10 10 10 10
4 4 5 5 5 4 5 5 5 4 4 4 4 4 4 4 3 2 2 2 2 1 2 2 2 1 1 1 0 1 2 2 3 4 6 8 9 10 10 10 10 10 10
4 4 4 4 4 4 4 4 4 4 4 4 4 4 4 5 5 4 3 3 2 2 1 1 1 1 1 1 1 1 2 2 2 2 2 4 6 8 9 10 10 10 10
5 4 4 4 3 4 4 4 4 5 4 3 3 4 4 5 6 5 4 4 3 2 2 2 2 1 1 1 2 2 2 2 2 2 1 2 2 3 4 7 9 10 10
4 4 4 4 4 4 5 7 5 4 4 4 4 4 4 4 6 7 7 6 6 5 4 3 2 3 4 3 2 2 2 1 2 2 1 3 2 3 4 4 7 9 10
4 4 4 4 5 5 6 7 7 4 4 5 5 4 3 4 5 4 5 6 6 7 7 5 4 5 4 4 3 2 2 3 4 3 2 3 2 3 3 4 7 8 9
4 4 4 4 4 4 6 6 6 4 3 4 5 5 5 4 4 4 4 3 3 4 6 5 6 6 5 5 5 4 4 3 3 2 3 2 2 3 3 2 5 8 9
4 4 4 4 4 4 6 7 6 3 2 4 4 4 4 4 5 5 4 4 3 4 5 6 7 7 7 6 5 2 2 1 2 3 2 3 2 2 2 2 3 7 8
4 4 4 4 5 5 6 7 7 3 3 3 3 3 5 5 5 5 5 5 5 5 3 2 3 4 5 5 6 5 5 3 2 3 3 3 2 1 2 2 2 2 3
Wind_Direction
173 166 170 171 178 169 173 177 178 166 167 161 164 158 156 156 155 156 161 169 167 165 166 165 163 161 161 160 158 157 157 156 154 155 154 155 160 164 164 170 166 162 156
160 156 166 172 180 177 167 161 167 161 166 151 145 149 154 145 144 153 156 167 170 174 173 170 168 165 166 166 162 160 160 162 162 162 162 162 163 165 167 169 168 168 165
157 150 155 171 185 172 156 140 144 129 125 120 117 134 141 140 142 150 153 158 172 181 180 175 173 173 173 171 170 169 168 168 172 172 171 169 168 168 171 170 169 167 166
152 140 144 174 180 155 147 143 136 116 96 93 108 136 132 139 148 159 159 162 169 181 184 180 180 179 177 179 178 174 173 174 178 179 178 174 171 170 173 174 173 171 170
147 141 151 175 162 136 144 154 125 125 122 114 126 122 121 137 153 159 167 177 180 176 176 181 183 182 184 184 182 180 181 183 183 182 184 181 177 175 175 180 179 181 182
137 140 150 158 140 130 135 130 127 116 131 142 113 74 39 92 135 157 179 180 179 180 174 173 175 183 188 187 187 189 189 189 188 186 184 181 179 178 178 182 184 184 187
150 145 149 146 139 143 159 152 137 118 111 106 80 40 12 16 47 164 162 157 173 179 164 160 159 178 190 194 194 195 196 196 196 193 190 186 183 183 186 190 190 190 194
160 157 155 160 153 144 148 160 142 130 131 124 124 99 27 357 351 357 110 160 182 175 177 175 175 187 189 188 202 201 201 200 199 200 197 193 192 193 195 197 200 202 204
170 165 165 162 161 154 168 179 160 149 161 180 147 140 147 206 296 329 310 198 185 182 197 186 190 197 194 191 200 211 211 207 205 206 205 203 200 201 203 207 210 212 214
176 178 171 165 166 163 168 180 163 160 154 173 208 177 168 160 156 304 327 314 241 211 215 207 201 203 199 195 205 209 213 212 211 212 212 210 208 208 211 213 215 218 218
189 185 173 169 171 174 177 175 160 165 165 172 183 180 149 130 138 149 229 291 307 266 237 221 209 211 206 203 208 213 211 209 212 215 213 214 215 215 214 215 216 218 220
199 197 179 175 180 180 179 181 179 173 177 175 181 177 167 163 176 165 191 221 253 275 261 239 217 215 214 209 217 213 211 210 212 213 214 217 218 218 217 219 220 223 225
199 203 190 183 184 185 184 180 181 185 181 178 186 190 188 189 171 159 158 186 236 283 290 270 234 215 214 207 217 209 209 210 213 214 215 217 220 223 221 222 224 227 228
201 196 189 190 192 186 186 180 184 192 183 186 191 183 183 193 176 167 164 155 159 302 296 270 269 222 210 203 215 206 209 213 216 216 216 219 221 223 224 223 223 224 225
197 190 187 186 191 186 181 170 184 195 182 190 191 183 182 192 183 178 163 159 159 190 254 264 263 252 227 210 215 209 216 223 221 218 218 220 222 223 225 223 222 220 220
191 185 186 179 180 178 178 175 179 190 181 199 191 182 193 190 182 170 168 169 163 167 212 244 238 240 234 230 217 216 230 229 226 222 221 220 220 221 223 223 222 221 222
187 186 186 179 181 185 182 178 189 188 189 205 199 187 198 183 175 171 164 163 168 162 196 257 251 248 218 229 234 234 238 231 233 228 226 224 222 222 223 223 223 223 224
190 186 180 178 187 188 184 185 196 197 194 203 208 195 203 190 185 183 172 181 186 180 175 224 263 263 243 229 220 232 250 239 238 236 228 225 224 224 224 223 223 224 224
182 181 175 180 191 190 189 193 192 196 202 208 207 202 203 187 197 194 186 189 200 188 166 186 241 254 264 252 244 268 269 272 257 246 231 227 225 226 226 226 226 225 223
179 183 185 186 190 191 192 195 193 198 206 211 208 205 201 195 200 198 197 201 195 178 173 185 225 250 258 267 158 240 288 284 277 273 246 234 232 232 231 231 230 227 223
186 181 179 187 189 190 199 196 196 198 200 209 217 214 208 202 202 202 203 200 188 184 184 192 217 239 249 233 225 217 237 283 285 255 251 251 231 233 234 233 231 228 223
182 177 189 194 195 206 204 196 193 200 201 203 214 224 222 211 215 217 216 205 191 187 193 196 214 224 237 226 217 209 206 229 278 262 197 264 221 235 237 230 229 225 221
186 185 201 201 206 211 198 195 199 193 199 205 207 211 224 219 208 210 221 223 217 211 198 192 206 222 219 216 198 215 218 213 232 238 188 258 247 246 245 238 224 219 220
191 194 203 206 202 209 196 198 202 199 201 210 207 204 209 224 219 202 203 216 227 226 215 204 208 223 221 213 199 200 209 231 265 254 183 223 245 249 256 246 228 219 222
195 199 203 200 199 216 204 199 188 187 208 226 226 217 207 217 224 204 197 214 239 257 244 227 222 228 229 224 202 166 178 189 269 272 210 195 237 258 269 259 240 223 225
200 199 204 205 203 213 208 196 184 185 205 232 244 235 223 223 224 208 202 208 227 244 240 243 245 256 246 241 222 200 189 192 217 254 232 191 218 207 276 267 248 232 231